Miami, FL

5:17 PM EST en Noviembre 16, 2018 (GMT -0500)
Miami International

Tiempo Historia de KMIA - Noviembre, 2018

Change the Weather History Date:

Viernes, Noviembre 9, 2018

  Actual Average Record
Temperature  
Temperatura media 80 ° F 76 ° F  
Temperatura máxima 85 ° F 83 ° F 89 ° F (1989)
Temperatura mínima 75 ° F 69 ° F 51 ° F (1923)
Degree Days  
Grados día de calefacción 0 0  
Month to date heating degree days 0 0  
Since 1 July heating degree days 0 0  
Cooling Degree Days 15 11  
Month to date cooling degree days 133 104  
Year to date cooling degree days 4376 4176  
Growing Degree Days 30 (Base 50)    
Moisture  
Punto de rocío 72 ° F    
Average Humidity 78    
Maximum Humidity 94    
Minimum Humidity 61    
Precipitación  
Precipitación 0.00 pul 0.12 pul 3.57 pul (1962)
Month to date precipitation 1.78 1.20  
Year to date precipitation 58.88 57.79  
Nieve  
Nieve 0.00 pul - - ()
Month to date snowfall 0.0  
Since 1 July snowfall 0.0  
Since 1 September snowfall 0.0  
Grosos de nieve 0.00 pul    
Presión al nivel del mar  
Presión al nivel del mar 30.00 pul    
Viento  
Velocidad del viento 6 mph (ESE)    
Velocidad máxima del viento 14 mph    
Max Gust Speed 18 mph    
Visibilidad 10 Millas    
Eventos      
T = Trace of Precipitation, MM = Missing Value Source: NWS Daily Summary

Daily Weather History Graph

Daily Weather History Graph

Search for Another Location

Airport or City:

Astronomía

Nov. 09, 2018 Salida Puesta
Hora real 6:34 AM EST 5:34 PM EST
Crepúsculo civil 6:10 AM EST 5:58 PM EST
Crepúsculo náutico 5:43 AM EST 6:26 PM EST
Crepúsculo astronómico 5:15 AM EST 6:53 PM EST
Luna 8:18 AM EST (11/9) 7:25 PM EST (11/9)
Horas de luz 11h 48m
Horas de luz
10h 59m
Creciente, 5% of the Moon is Illuminated
Nov 9
Creciente
Nov 15
Cuarto creciente
Nov 23
Luna llena
Nov 29
Cuarto menguante
Dic 7
Nueva

Hourly Weather History & Observations

Hora (EST) Temp. Índice de calor Punto de rocío Humedad Presión Visibilidad Wind Dir Velocidad del viento Velocidad de ráfagas Precip Eventos Condiciones
12:53 AM 77.0 ° F - 73.0 ° F 88% 30.00 pul 10.0 mi Este 4.6 mph - N/A   Muy nublado
1:53 AM 77.0 ° F - 73.0 ° F 88% 29.99 pul 10.0 mi ENE 4.6 mph - N/A   Parcialmente nublado
2:53 AM 75.9 ° F - 73.0 ° F 91% 29.99 pul 10.0 mi Este 4.6 mph - N/A   Parcialmente nublado
3:53 AM 75.9 ° F - 72.0 ° F 87% 29.98 pul 10.0 mi Este 5.8 mph - N/A   Parcialmente nublado
4:53 AM 75.9 ° F - 73.0 ° F 91% 29.99 pul 10.0 mi Sin viento Sin viento - N/A   Parcialmente nublado
5:53 AM 75.9 ° F - 73.0 ° F 91% 29.99 pul 10.0 mi Sin viento Sin viento - N/A   Parcialmente nublado
6:53 AM 75.9 ° F - 73.0 ° F 91% 30.00 pul 10.0 mi Este 4.6 mph - N/A   Parcialmente nublado
7:53 AM 78.1 ° F - 73.9 ° F 87% 30.01 pul 10.0 mi ESE 4.6 mph - N/A   Parcialmente nublado
8:51 AM 80.6 ° F 85.4 ° F 73.4 ° F 79% 30.03 pul 10.0 mi SE 9.2 mph - N/A   Muy nublado
8:53 AM 81.0 ° F 86.2 ° F 73.9 ° F 79% 30.03 pul 10.0 mi SE 8.1 mph - N/A   Muy nublado
9:51 AM 82.4 ° F 87.2 ° F 71.6 ° F 70% 30.03 pul 10.0 mi ESE 8.1 mph - N/A   Muy nublado
9:53 AM 82.9 ° F 88.0 ° F 72.0 ° F 69% 30.04 pul 10.0 mi ESE 9.2 mph - N/A   Muy nublado
10:53 AM 84.0 ° F 89.6 ° F 72.0 ° F 67% 30.03 pul 10.0 mi ESE 6.9 mph - N/A   Nubes dispersas
11:53 AM 84.9 ° F 89.4 ° F 70.0 ° F 61% 30.00 pul 10.0 mi SE 11.5 mph - N/A   Nubes dispersas
12:53 PM 84.9 ° F 90.7 ° F 72.0 ° F 65% 29.97 pul 10.0 mi SE 11.5 mph - N/A   Nubes dispersas
1:53 PM 84.0 ° F 89.0 ° F 71.1 ° F 65% 29.96 pul 10.0 mi SE 9.2 mph - N/A   Nubes dispersas
2:53 PM 84.0 ° F 89.6 ° F 72.0 ° F 67% 29.96 pul 10.0 mi ESE 9.2 mph - N/A   Nubes dispersas
3:53 PM 82.9 ° F 88.0 ° F 72.0 ° F 69% 29.96 pul 10.0 mi SE 9.2 mph - N/A   Parcialmente nublado
4:53 PM 81.0 ° F 85.2 ° F 72.0 ° F 74% 29.96 pul 10.0 mi SE 9.2 mph - N/A   Parcialmente nublado
5:53 PM 80.1 ° F 83.8 ° F 72.0 ° F 76% 29.97 pul 10.0 mi SE 8.1 mph - N/A   Parcialmente nublado
6:53 PM 79.0 ° F - 72.0 ° F 79% 29.99 pul 10.0 mi SE 5.8 mph - N/A   Parcialmente nublado
7:53 PM 79.0 ° F - 73.0 ° F 82% 30.01 pul 10.0 mi SE 5.8 mph - N/A   Parcialmente nublado
8:53 PM 79.0 ° F - 73.0 ° F 82% 30.02 pul 10.0 mi SE 4.6 mph - N/A   Nubes dispersas
9:53 PM 78.1 ° F - 73.0 ° F 84% 30.03 pul 10.0 mi Este 5.8 mph - N/A   Parcialmente nublado
10:53 PM 77.0 ° F - 73.0 ° F 88% 30.03 pul 10.0 mi Este 5.8 mph - N/A   Parcialmente nublado
11:53 PM 78.1 ° F - 73.0 ° F 84% 30.02 pul 10.0 mi Sin viento Sin viento - N/A   Parcialmente nublado